Regional Weather Roundup
Issued by NWS

Home | Current Version | Previous Version | Text Only | Print | Product List | Glossary Off
Versions: 1 2 3 4 5 6 7 8 9 10 11 12 13 14 15 16 17 18 19 20 21 22 23 24 25 26 27 28 29 30 31 32 33 34 35 36 37 38 39 40 41 42 43 44 45 46 47 48 49 50

000
ASUS43 KIND 181109
RWRIN

WEATHER ROUNDUP FOR INDIANA
NATIONAL WEATHER SERVICE INDIANAPOLIS IN
700 AM EDT SAT APR 18 2015

NOTE: "FAIR" INDICATES FEW OR NO CLOUDS BELOW 12,000 FEET WITH NO
SIGNIFICANT WEATHER AND/OR OBSTRUCTIONS TO VISIBILITY.

* - STATION DOES NOT REPORT WEATHER SUCH AS PRECIPITATION OR FOG.

+ - STATION NOT QUALITY CONTROLLED BY THE NATIONAL WEATHER SERVICE.
    USE DATA WITH CAUTION...ESPECIALLY DEWPOINT AND RELATIVE
    HUMIDITY OBSERVATIONS.

INZ001>003-010>013-019-020-181200-
NORTHWEST INDIANA

CITY           SKY/WX    TMP DP  RH WIND       PRES   REMARKS
GARY /AIRPORT/ MOCLDY    59  45  58 SW6       30.03R
KNOX *+        CLEAR     48  36  61 CALM      30.03R
MICHIGAN CITY+ CLEAR     54  41  62 SW3       30.03R
MONTICELLO +   CLEAR     48  48  98 CALM      30.04R
RENSSELAER +   CLEAR     52  46  82 CALM      30.04R
VALPARAISO     MOCLDY    54  45  71 SW5       30.04R

$$

LMZ046-743>745-181200-
SOUTHERN LAKE MICHIGAN

STATION/POSITION TIME  TEMP WIND        PRES
                       AIR  DIR/SP/G
                 (UTC) (F)  (DEG/KT/KT) (MB)
BURNS HARBOR     1100   61  210/  7/  9 1016.9S
MICHIGAN CITY    1100   62  190/  6/  7   N/A
4NW MICH CITY    1100   53                N/A

$$

INZ004-005-014>016-021>024-181200-
NORTH CENTRAL INDIANA

CITY           SKY/WX    TMP DP  RH WIND       PRES   REMARKS
GOSHEN         CLEAR     52  44  74 CALM      30.03S
LOGANSPORT +   CLEAR     46  45  93 CALM      30.05R
PERU/GRISSOM   CLEAR     52  45  75 CALM      30.04R
ROCHESTER +    CLEAR     52  46  82 CALM      30.05R
SOUTH BEND     CLEAR     54  43  66 CALM      30.04S
WARSAW +       CLEAR     50  45  81 CALM      30.04R

$$

INZ006>009-017-018-025>027-181200-
NORTHEAST INDIANA

CITY           SKY/WX    TMP DP  RH WIND       PRES   REMARKS
ANGOLA *+      PTCLDY    48  46  93 CALM      30.04S
AUBURN +       PTCLDY    54  43  66 CALM      30.04F
FORT WAYNE     PTCLDY    51  44  77 CALM      30.05R
HUNTINGTON +   CLEAR     49  44  81 CALM      30.04R

$$

INZ028-029-035-036-043>045-051>053-181200-
WEST CENTRAL INDIANA

CITY           SKY/WX    TMP DP  RH WIND       PRES   REMARKS
CRAWFORDSVL +  CLEAR     49  41  75 CALM      30.04R
GREENCASTLE +  CLEAR     52  41  66 CALM      30.04S
LAFAYETTE      CLEAR     48  46  93 NE3       30.04R
TERRE HAUTE    CLEAR     50  47  89 CALM      30.03R

$$

INZ030>032-037>040-046>048-054>057-064-065-181200-
CENTRAL INDIANA

CITY           SKY/WX    TMP DP  RH WIND       PRES   REMARKS
CP ATTERBURY + CLEAR     45  43  93 CALM      30.05R
COLUMBUS       CLEAR     46  43  87 CALM      30.04
FISHERS *+     CLEAR     46  46 100 CALM      30.05R
FRANKFORT +    CLEAR     49  46  89 E3        30.06R
GREENWOOD *+   CLEAR     52  41  66 CALM      30.04S
INDIANAPOLIS   PTCLDY    52  45  77 CALM      30.02S
-EAGLE CREEK   CLEAR     50  47  89 CALM      30.03S
KOKOMO *+      CLEAR     48  45  87 CALM      30.04R
MARION +       CLEAR     49  44  83 CALM      30.05R
MT COMFORT *+  CLEAR     48 N/A N/A CALM      30.04S
SHELBYVILLE    CLEAR     50  44  80 CALM      30.03F
ZIONSVILLE +   CLEAR     49  45  85 CALM      30.06R

$$

INZ033-034-041-042-049-050-058-059-181200-
EAST CENTRAL INDIANA

CITY           SKY/WX    TMP DP  RH WIND       PRES   REMARKS
MUNCIE         CLEAR     49  43  80 CALM      30.04F

$$

INZ060-061-067>069-081>083-085>088-181200-
SOUTHWEST INDIANA

CITY           SKY/WX    TMP DP  RH WIND       PRES   REMARKS
EVANSVILLE     PTCLDY    55  53  93 W3        30.04R FOG
HUNTINGBURG *+ MOCLDY    54  52  94 CALM      30.02S VSB 1/2
WASHINGTON +   CLEAR     54  50  87 CALM      30.01F

$$

INZ062-063-066-070>080-084-089>092-181200-
SOUTH CENTRAL AND SOUTHEAST INDIANA

CITY           SKY/WX    TMP DP  RH WIND       PRES   REMARKS
BEDFORD +      CLEAR     50  46  87 CALM      30.03R
BLOOMINGTON    CLEAR     50  45  83 CALM      30.04R
MADISON *+     CLEAR     50  45  81 CALM      30.06R
NORTH VERNON + CLEAR     48  48 100 CALM      30.04S

$$




USA.gov is the U.S. government's official web portal to all federal, state and local government web resources and services.